Satellite: NOAA-11
Catalog number: 19531
Epoch time:      09112.76585694
Element set:    0596
Inclination:      098.7811 deg
RA of node:       203.5758 deg
Eccentricity:    0.0010741
Arg of perigee:   268.4048 deg
Mean anomaly:     091.5896 deg
Mean motion:   14.14892700 rev/day
Decay rate:      -1.90e-06 rev/day^2
Epoch rev:           06168
Checksum:              329

Satellite: NOAA-12
Catalog number: 21263
Epoch time:      09112.94063807
Element set:    0104
Inclination:      098.7728 deg
RA of node:       120.9753 deg
Eccentricity:    0.0011792
Arg of perigee:   310.5582 deg
Mean anomaly:     049.4572 deg
Mean motion:   14.25574957 rev/day
Decay rate:        1.8e-07 rev/day^2
Epoch rev:           93252
Checksum:              305

Satellite: MET-3/5
Catalog number: 21655
Epoch time:      09113.90727351
Element set:     588
Inclination:      082.5483 deg
RA of node:       244.8325 deg
Eccentricity:    0.0012935
Arg of perigee:   321.7195 deg
Mean anomaly:     038.3008 deg
Mean motion:   13.17019102 rev/day
Decay rate:        5.1e-07 rev/day^2
Epoch rev:           85048
Checksum:              291

Satellite: MET-2/21
Catalog number: 22782
Epoch time:      09112.42508837
Element set:    0439
Inclination:      082.5480 deg
RA of node:       226.2313 deg
Eccentricity:    0.0023373
Arg of perigee:   140.2058 deg
Mean anomaly:     220.0800 deg
Mean motion:   13.83636267 rev/day
Decay rate:        2.0e-08 rev/day^2
Epoch rev:           78989
Checksum:              288

Satellite: OKEAN-4
Catalog number: 23317
Epoch time:      09112.76087280
Element set:    0888
Inclination:      082.5416 deg
RA of node:       026.2080 deg
Eccentricity:    0.0021627
Arg of perigee:   183.0010 deg
Mean anomaly:     177.1063 deg
Mean motion:   14.82689927 rev/day
Decay rate:        9.5e-07 rev/day^2
Epoch rev:           78415
Checksum:              301

Satellite: NOAA-14
Catalog number: 23455
Epoch time:      09112.75571482
Element set:    0591
Inclination:      098.9105 deg
RA of node:       190.6239 deg
Eccentricity:    0.0009050
Arg of perigee:   353.2816 deg
Mean anomaly:     006.8233 deg
Mean motion:   14.13762972 rev/day
Decay rate:       2.34e-06 rev/day^2
Epoch rev:           73809
Checksum:              305

Satellite: NOAA-15
Catalog number: 25338
Epoch time:      09112.57350727
Element set:    0900
Inclination:      098.5820 deg
RA of node:       103.0085 deg
Eccentricity:    0.0009968
Arg of perigee:   215.8041 deg
Mean anomaly:     144.2462 deg
Mean motion:   14.24755425 rev/day
Decay rate:       1.72e-06 rev/day^2
Epoch rev:           56885
Checksum:              301

Satellite: RESURS
Catalog number: 25394
Epoch time:      09112.65803169
Element set:    0209
Inclination:      098.3482 deg
RA of node:       147.8220 deg
Eccentricity:    0.0002245
Arg of perigee:   036.2498 deg
Mean anomaly:     323.8833 deg
Mean motion:   14.24181504 rev/day
Decay rate:       -4.3e-07 rev/day^2
Epoch rev:           56049
Checksum:              290

Satellite: FENGYUN1
Catalog number: 25730
Epoch time:      09112.92273464
Element set:    0740
Inclination:      098.7535 deg
RA of node:       084.7460 deg
Eccentricity:    0.0022857
Arg of perigee:   018.2091 deg
Mean anomaly:     341.9890 deg
Mean motion:   14.07962945 rev/day
Decay rate:      -1.08e-06 rev/day^2
Epoch rev:           51254
Checksum:              307

Satellite: OKEAN-0
Catalog number: 25860
Epoch time:      09112.55856166
Element set:     657
Inclination:      097.7824 deg
RA of node:       095.9632 deg
Eccentricity:    0.0001530
Arg of perigee:   046.0744 deg
Mean anomaly:     314.0585 deg
Mean motion:   14.73568896 rev/day
Decay rate:        6.0e-07 rev/day^2
Epoch rev:           52495
Checksum:              324

Satellite: NOAA-16
Catalog number: 26536
Epoch time:      09112.97057234
Element set:    0376
Inclination:      099.1768 deg
RA of node:       115.3036 deg
Eccentricity:    0.0011386
Arg of perigee:   077.6403 deg
Mean anomaly:     282.5995 deg
Mean motion:   14.12516950 rev/day
Decay rate:       1.42e-06 rev/day^2
Epoch rev:           44250
Checksum:              306

Satellite: NOAA-17
Catalog number: 27453
Epoch time:      09112.70468020
Element set:    0385
Inclination:      098.4887 deg
RA of node:       173.6735 deg
Eccentricity:    0.0010719
Arg of perigee:   286.5206 deg
Mean anomaly:     073.4817 deg
Mean motion:   14.24057362 rev/day
Decay rate:       1.05e-06 rev/day^2
Epoch rev:           35485
Checksum:              313

Satellite: NOAA-18
Catalog number: 28654
Epoch time:      09113.73913895
Element set:     874
Inclination:      098.9038 deg
RA of node:       057.4094 deg
Eccentricity:    0.0014730
Arg of perigee:   153.5996 deg
Mean anomaly:     206.5912 deg
Mean motion:   14.11253022 rev/day
Decay rate:       2.84e-06 rev/day^2
Epoch rev:           20227
Checksum:              314

